Location: Bluff Heights
(33.7692°N, 118.1592°W)
Time: 07:06:36
(UTC+00:00)

First-Move - Pass Details

Date: 27 September 2021
Orbit: 574 x 666 km, 97.6° (Epoch: 26 October)

Event Time Altitude Azimuth Distance (km) Brightness Sun altitude
Rises 13:06:06 0° 358° (N) 2,849 ? -8.8°
Reaches altitude 10° 13:08:31 10° 347° (NNW) 1,928 ? -8.3°
Maximum altitude 13:12:05 28° 288° (WNW) 1,115 ? -7.6°
Drops below altitude 10° 13:15:34 10° 229° (SW) 1,886 ? -6.8°
Sets 13:17:55 0° 218° (SW) 2,774 ? -6.4°
